Regional Weather Roundup
Issued by NWS Little Rock, AR

Home | Current Version | Previous Version | Graphics & Text | Print | Product List | Glossary On
Versions: 1 2 3 4 5 6 7 8 9 10 11 12 13 14 15 16 17 18 19 20 21 22 23 24 25 26 27 28 29 30 31 32 33 34 35 36 37 38 39
000
ASUS44 KLZK 202105
RWRLZK

WEATHER ROUNDUP FOR ARKANSAS
NATIONAL WEATHER SERVICE LITTLE ROCK AR
400 PM CDT WED SEP 20 2017

NOTE: "FAIR" INDICATES FEW OR NO CLOUDS BELOW 12,000 FEET WITH NO
SIGNIFICANT WEATHER AND/OR OBSTRUCTIONS TO VISIBILITY.

ARZ001-003-010-029-202200-
NORTHWEST ARKANSAS

CITY           SKY/WX    TMP DP  RH WIND       PRES   REMARKS
FAYETTEVILLE   MOSUNNY   90  72  55 S14G21    29.89F HX  97
FORT SMITH     MOSUNNY   97  69  40 S9        29.83F HX 103
HARRISON       MOSUNNY   90  68  48 S15       29.92S HX  94
BENTONVILLE    SUNNY     91  69  48 S10G18    29.90F HX  96
ROGERS         MOSUNNY   91  71  51 S14       29.89F HX  97
SILOAM SPGS    SUNNY     92  71  50 S13       29.87F HX  98
HIGHFILL       SUNNY     91  71  51 S16       29.88F HX  97
SPRINGDALE     MOSUNNY   91  68  46 S17G23    29.91F HX  95
$$

ARZ004-005-016-202200-
NORTH CENTRAL ARKANSAS

CITY           SKY/WX    TMP DP  RH WIND       PRES   REMARKS
BATESVILLE     MOSUNNY  N/A N/A N/A SW9       29.91F
FLIPPIN        MOSUNNY   94  69  44 S10G17    29.89S HX  99
MTN HOME       SUNNY     93  68  43 SW8G17    29.89F HX  97
$$

ARZ040-041-202200-
WEST CENTRAL ARKANSAS

CITY           SKY/WX    TMP DP  RH WIND       PRES   REMARKS
MENA           MOSUNNY   91  72  52 SE7       29.92S HX  98
MOUNT IDA      SUNNY     91  65  41 VRB7      29.89F HX  93
$$

ARZ009-017-025-026-028-202200-
NORTHEAST ARKANSAS

CITY           SKY/WX    TMP DP  RH WIND       PRES   REMARKS
JONESBORO      MOSUNNY   92  73  53 S16G22    29.91F HX 100
NEWPORT        SUNNY     92  71  50 S14G20    29.91F HX  98
BLYTHEVILLE    SUNNY     89  75  63 S9        29.93F HX  99
$$

ARZ022-023-033-042-044-202200-
CENTRAL ARKANSAS

CITY           SKY/WX    TMP DP  RH WIND       PRES   REMARKS
LITTLE ROCK    MOSUNNY   90  72  55 S9        29.91F HX  97
N LITTLE ROCK    N/A     92  72  52 S8        29.91S HX  99
JACKSONVILLE   SUNNY     94  73  50 S9G17     29.90F HX 102
CONWAY           N/A     93  72  49 S9G18     29.87F HX 100
SEARCY         SUNNY     92  73  53 S13       29.92F HX 100
HOT SPRINGS    PTSUNNY   92  71  50 S7G16     29.91F HX  98
RUSSELLVILLE   MOSUNNY   93  69  45 VRB7      29.87F HAZE    HX  98
CLINTON        PTSUNNY   90  72  55 S10       29.90S HAZE    HX  96
$$

ARZ036-202200-
EAST ARKANSAS

CITY           SKY/WX    TMP DP  RH WIND       PRES   REMARKS
WEST MEMPHIS   SUNNY     90  72  55 S9        29.92F HX  97
$$

ARZ050-053-066-070-073-202200-
SOUTHWEST ARKANSAS

CITY           SKY/WX    TMP DP  RH WIND       PRES   REMARKS
ARKADELPHIA    FAIR      92  73  53 S10       29.90F HX 100
CAMDEN         MOSUNNY   91  72  52 SW10      29.90F HX  98
TEXARKANA      MOSUNNY   93  69  45 SW14      29.89F HX  98
EL DORADO      MOSUNNY   91  71  51 S10       29.92F HX  97
DE QUEEN       MOSUNNY   92  74  55 SE6       29.86F HX 101
$$

ARZ056-057-069-202200-
SOUTHEAST ARKANSAS

CITY           SKY/WX    TMP DP  RH WIND       PRES   REMARKS
PINE BLUFF     MOSUNNY   90  72  55 S14       29.92F HX  97
STUTTGART      MOSUNNY   92  71  50 S12       29.92F HX  98
MONTICELLO     MOSUNNY   89  71  55 SW9       29.94F HX  95

$$






USA.gov is the U.S. government's official web portal to all federal, state and local government web resources and services.